Time,TemperatureF,DewpointF,PressureIn,WindDirection,WindDirectionDegrees,WindSpeedMPH,WindSpeedGustMPH,Humidity,HourlyPrecipIn,Conditions,Clouds,dailyrainin,SoftwareType,DateUTC
2013-02-03 00:10:00,19.6,16.0,30.05,WSW,238,1.0,4.0,84,0.00,,,0.00,weatherlink.com 1.10,2013-02-03 05:10:00,
2013-02-03 00:25:00,19.5,16.0,30.05,WSW,252,2.0,5.0,85,0.00,,,0.00,weatherlink.com 1.10,2013-02-03 05:25:00,
2013-02-03 00:40:00,19.4,16.0,30.04,SSW,201,1.0,3.0,86,0.00,,,0.00,weatherlink.com 1.10,2013-02-03 05:40:00,
2013-02-03 00:55:00,19.3,16.0,30.04,West,269,0.0,4.0,86,0.00,,,0.00,weatherlink.com 1.10,2013-02-03 05:55:00,
2013-02-03 01:10:00,19.2,16.0,30.03,SW,229,2.0,3.0,86,0.00,,,0.00,weatherlink.com 1.10,2013-02-03 06:10:00,
2013-02-03 01:25:00,19.2,16.0,30.03,SW,215,0.0,3.0,87,0.00,,,0.00,weatherlink.com 1.10,2013-02-03 06:25:00,
2013-02-03 01:40:00,19.1,16.0,30.03,WSW,242,0.0,3.0,87,0.00,,,0.00,weatherlink.com 1.10,2013-02-03 06:40:00,
2013-02-03 01:55:00,19.0,16.0,30.03,West,278,0.0,2.0,87,0.00,,,0.00,weatherlink.com 1.10,2013-02-03 06:55:00,
2013-02-03 02:10:00,19.0,16.0,30.02,West,277,0.0,2.0,87,0.00,,,0.00,weatherlink.com 1.10,2013-02-03 07:10:00,
2013-02-03 02:25:00,18.9,16.0,30.02,WSW,257,1.0,1.0,88,0.00,,,0.00,weatherlink.com 1.10,2013-02-03 07:25:00,
2013-02-03 02:40:00,18.9,16.0,30.01,West,276,0.0,1.0,88,0.00,,,0.00,weatherlink.com 1.10,2013-02-03 07:40:00,
2013-02-03 02:55:00,18.8,16.0,30.01,West,274,0.0,0.0,88,0.00,,,0.00,weatherlink.com 1.10,2013-02-03 07:55:00,
2013-02-03 03:11:00,18.7,16.0,30.00,West,274,0.0,1.0,88,0.00,,,0.00,weatherlink.com 1.10,2013-02-03 08:11:00,
2013-02-03 03:26:00,18.6,16.0,30.00,North,353,0.0,2.0,89,0.00,,,0.00,weatherlink.com 1.10,2013-02-03 08:26:00,
2013-02-03 03:41:00,18.3,15.0,29.99,West,269,1.0,2.0,88,0.00,,,0.00,weatherlink.com 1.10,2013-02-03 08:41:00,
2013-02-03 03:55:00,18.2,15.0,29.99,WSW,238,0.0,1.0,88,0.00,,,0.00,weatherlink.com 1.10,2013-02-03 08:55:00,
2013-02-03 04:11:00,17.8,15.0,29.99,WSW,238,0.0,0.0,89,0.00,,,0.00,weatherlink.com 1.10,2013-02-03 09:11:00,
2013-02-03 04:25:00,17.6,15.0,29.99,WSW,238,0.0,0.0,89,0.00,,,0.00,weatherlink.com 1.10,2013-02-03 09:25:00,
2013-02-03 04:40:00,17.7,15.0,29.98,West,259,0.0,1.0,89,0.00,,,0.00,weatherlink.com 1.10,2013-02-03 09:40:00,
2013-02-03 04:56:00,17.7,15.0,29.98,West,264,0.0,1.0,88,0.00,,,0.00,weatherlink.com 1.10,2013-02-03 09:56:00,
2013-02-03 05:10:00,17.4,15.0,29.98,West,264,0.0,0.0,88,0.00,,,0.00,weatherlink.com 1.10,2013-02-03 10:10:00,
2013-02-03 05:25:00,16.7,14.0,29.98,West,264,0.0,1.0,89,0.00,,,0.00,weatherlink.com 1.10,2013-02-03 10:25:00,
2013-02-03 05:41:00,15.5,13.0,29.98,West,264,0.0,0.0,90,0.00,,,0.00,weatherlink.com 1.10,2013-02-03 10:41:00,
2013-02-03 05:56:00,14.5,12.0,29.98,West,264,0.0,0.0,90,0.00,,,0.00,weatherlink.com 1.10,2013-02-03 10:56:00,
2013-02-03 06:11:00,14.2,12.0,29.98,West,264,0.0,0.0,91,0.00,,,0.00,weatherlink.com 1.10,2013-02-03 11:11:00,
2013-02-03 06:26:00,14.0,12.0,29.97,West,264,0.0,0.0,92,0.00,,,0.00,weatherlink.com 1.10,2013-02-03 11:26:00,
2013-02-03 06:41:00,13.5,12.0,29.97,West,264,0.0,0.0,92,0.00,,,0.00,weatherlink.com 1.10,2013-02-03 11:41:00,
2013-02-03 06:56:00,12.4,11.0,29.97,West,264,0.0,0.0,92,0.00,,,0.00,weatherlink.com 1.10,2013-02-03 11:56:00,
2013-02-03 07:11:00,11.5,10.0,29.96,West,264,0.0,0.0,92,0.00,,,0.00,weatherlink.com 1.10,2013-02-03 12:11:00,
2013-02-03 07:26:00,11.0,9.0,29.96,West,264,0.0,0.0,92,0.00,,,0.00,weatherlink.com 1.10,2013-02-03 12:26:00,
2013-02-03 07:41:00,11.2,9.0,29.96,West,264,0.0,0.0,92,0.00,,,0.00,weatherlink.com 1.10,2013-02-03 12:41:00,
2013-02-03 07:56:00,12.0,10.0,29.97,West,264,0.0,0.0,93,0.00,,,0.00,weatherlink.com 1.10,2013-02-03 12:56:00,
2013-02-03 08:11:00,14.0,13.0,29.98,West,264,0.0,0.0,94,0.00,,,0.00,weatherlink.com 1.10,2013-02-03 13:11:00,
2013-02-03 08:26:00,15.2,13.0,29.98,South,169,0.0,0.0,92,0.00,,,0.00,weatherlink.com 1.10,2013-02-03 13:26:00,
2013-02-03 08:56:00,17.7,14.0,29.98,North,356,0.0,1.0,86,0.00,,,0.00,weatherlink.com 1.10,2013-02-03 13:56:00,
2013-02-03 09:11:00,19.1,15.0,29.97,West,275,0.0,3.0,83,0.00,,,0.00,weatherlink.com 1.10,2013-02-03 14:11:00,
2013-02-03 09:26:00,20.2,15.0,29.95,NNW,327,0.0,5.0,79,0.00,,,0.00,weatherlink.com 1.10,2013-02-03 14:26:00,
2013-02-03 09:41:00,21.3,15.0,29.95,North,350,2.0,5.0,76,0.00,,,0.00,weatherlink.com 1.10,2013-02-03 14:41:00,
2013-02-03 09:56:00,22.0,15.0,29.95,North,8,0.0,4.0,73,0.00,,,0.00,weatherlink.com 1.10,2013-02-03 14:56:00,
2013-02-03 10:11:00,22.5,15.0,29.94,WNW,290,4.0,6.0,73,0.00,,,0.00,weatherlink.com 1.10,2013-02-03 15:11:00,
2013-02-03 10:26:00,23.1,15.0,29.94,ESE,103,7.0,7.0,71,0.00,,,0.00,weatherlink.com 1.10,2013-02-03 15:26:00,
2013-02-03 10:41:00,23.5,15.0,29.93,NNE,29,0.0,7.0,70,0.00,,,0.00,weatherlink.com 1.10,2013-02-03 15:41:00,
2013-02-03 10:57:00,25.5,16.0,29.92,ESE,122,1.0,3.0,68,0.00,,,0.00,weatherlink.com 1.10,2013-02-03 15:57:00,
2013-02-03 11:11:00,24.8,15.0,29.91,SSE,148,2.0,4.0,67,0.00,,,0.00,weatherlink.com 1.10,2013-02-03 16:11:00,
2013-02-03 11:26:00,24.3,15.0,29.89,WNW,292,2.0,4.0,67,0.00,,,0.00,weatherlink.com 1.10,2013-02-03 16:26:00,
2013-02-03 11:42:00,24.6,15.0,29.89,East,98,3.0,5.0,68,0.00,,,0.00,weatherlink.com 1.10,2013-02-03 16:42:00,
2013-02-03 12:12:00,24.5,15.0,29.86,NE,43,2.0,5.0,68,0.00,,,0.00,weatherlink.com 1.10,2013-02-03 17:12:00,
2013-02-03 12:27:00,25.1,16.0,29.85,WSW,240,0.0,5.0,69,0.00,,,0.00,weatherlink.com 1.10,2013-02-03 17:27:00,
2013-02-03 12:42:00,24.8,15.0,29.84,West,264,2.0,6.0,67,0.00,,,0.00,weatherlink.com 1.10,2013-02-03 17:42:00,
2013-02-03 12:57:00,25.0,17.0,29.83,ESE,112,1.0,3.0,70,0.00,,,0.00,weatherlink.com 1.10,2013-02-03 17:57:00,
2013-02-03 13:12:00,25.0,15.0,29.83,West,281,2.0,5.0,67,0.00,,,0.00,weatherlink.com 1.10,2013-02-03 18:12:00,
2013-02-03 13:27:00,25.2,16.0,29.82,ENE,64,0.0,3.0,68,0.00,,,0.00,weatherlink.com 1.10,2013-02-03 18:27:00,
2013-02-03 13:42:00,25.5,17.0,29.81,ENE,64,0.0,2.0,69,0.00,,,0.00,weatherlink.com 1.10,2013-02-03 18:42:00,
2013-02-03 13:57:00,25.1,16.0,29.81,SE,134,2.0,5.0,69,0.00,,,0.00,weatherlink.com 1.10,2013-02-03 18:57:00,
2013-02-03 14:12:00,25.0,17.0,29.80,ESE,113,2.0,3.0,71,0.00,,,0.00,weatherlink.com 1.10,2013-02-03 19:12:00,
2013-02-03 14:27:00,24.8,17.0,29.81,East,101,0.0,3.0,71,0.00,,,0.00,weatherlink.com 1.10,2013-02-03 19:27:00,
2013-02-03 14:42:00,24.5,17.0,29.80,ENE,75,0.0,2.0,72,0.00,,,0.00,weatherlink.com 1.10,2013-02-03 19:42:00,
2013-02-03 14:57:00,24.7,17.0,29.80,WSW,245,1.0,4.0,72,0.00,,,0.00,weatherlink.com 1.10,2013-02-03 19:57:00,
2013-02-03 15:12:00,24.6,17.0,29.79,WNW,290,0.0,3.0,73,0.00,,,0.00,weatherlink.com 1.10,2013-02-03 20:12:00,
2013-02-03 15:27:00,24.7,18.0,29.79,WNW,297,0.0,2.0,74,0.00,,,0.00,weatherlink.com 1.10,2013-02-03 20:27:00,
2013-02-03 15:42:00,24.6,17.0,29.79,ESE,104,1.0,3.0,74,0.00,,,0.00,weatherlink.com 1.10,2013-02-03 20:42:00,
2013-02-03 15:57:00,24.5,17.0,29.79,WNW,293,1.0,3.0,74,0.00,,,0.00,weatherlink.com 1.10,2013-02-03 20:57:00,
2013-02-03 16:12:00,24.4,17.0,29.78,ENE,68,1.0,2.0,74,0.00,,,0.00,weatherlink.com 1.10,2013-02-03 21:12:00,
2013-02-03 16:27:00,24.5,18.0,29.78,East,91,0.0,2.0,75,0.00,,,0.00,weatherlink.com 1.10,2013-02-03 21:27:00,
2013-02-03 16:42:00,24.2,18.0,29.78,West,278,3.0,3.0,76,0.00,,,0.00,weatherlink.com 1.10,2013-02-03 21:42:00,
2013-02-03 16:57:00,24.0,18.0,29.77,West,278,0.0,2.0,77,0.00,,,0.00,weatherlink.com 1.10,2013-02-03 21:57:00,
2013-02-03 17:27:00,23.1,18.0,29.77,NNW,335,0.0,1.0,80,0.00,,,0.00,weatherlink.com 1.10,2013-02-03 22:27:00,
2013-02-03 17:42:00,22.7,18.0,29.77,NNW,347,0.0,0.0,81,0.00,,,0.00,weatherlink.com 1.10,2013-02-03 22:42:00,
2013-02-03 17:57:00,22.2,18.0,29.77,East,100,0.0,1.0,82,0.00,,,0.00,weatherlink.com 1.10,2013-02-03 22:57:00,
2013-02-03 18:12:00,21.8,17.0,29.77,East,98,0.0,0.0,83,0.00,,,0.00,weatherlink.com 1.10,2013-02-03 23:12:00,
2013-02-03 18:28:00,21.6,17.0,29.77,East,98,0.0,0.0,83,0.00,,,0.00,weatherlink.com 1.10,2013-02-03 23:28:00,
2013-02-03 18:42:00,21.3,18.0,29.77,East,99,0.0,0.0,85,0.00,,,0.00,weatherlink.com 1.10,2013-02-03 23:42:00,
2013-02-03 18:57:00,21.3,18.0,29.77,East,98,0.0,0.0,86,0.00,,,0.00,weatherlink.com 1.10,2013-02-03 23:57:00,
2013-02-03 19:12:00,21.2,18.0,29.77,East,98,0.0,0.0,86,0.00,,,0.00,weatherlink.com 1.10,2013-02-04 00:12:00,
2013-02-03 19:27:00,21.1,18.0,29.77,East,98,0.0,0.0,87,0.00,,,0.00,weatherlink.com 1.10,2013-02-04 00:27:00,
2013-02-03 19:42:00,21.2,18.0,29.77,East,98,0.0,0.0,87,0.00,,,0.00,weatherlink.com 1.10,2013-02-04 00:42:00,
2013-02-03 19:57:00,21.3,18.0,29.77,East,98,0.0,0.0,87,0.00,,,0.00,weatherlink.com 1.10,2013-02-04 00:57:00,
2013-02-03 20:12:00,21.5,18.0,29.77,East,98,0.0,0.0,86,0.00,,,0.00,weatherlink.com 1.10,2013-02-04 01:12:00,
2013-02-03 20:27:00,21.5,18.0,29.77,East,98,0.0,0.0,86,0.00,,,0.00,weatherlink.com 1.10,2013-02-04 01:27:00,
2013-02-03 20:42:00,21.5,18.0,29.76,East,98,0.0,0.0,86,0.00,,,0.00,weatherlink.com 1.10,2013-02-04 01:42:00,
2013-02-03 20:57:00,21.3,18.0,29.77,East,98,0.0,0.0,87,0.00,,,0.00,weatherlink.com 1.10,2013-02-04 01:57:00,
2013-02-03 21:13:00,21.2,18.0,29.77,East,98,0.0,0.0,88,0.00,,,0.00,weatherlink.com 1.10,2013-02-04 02:13:00,
2013-02-03 21:27:00,21.0,18.0,29.76,East,99,0.0,0.0,88,0.00,,,0.00,weatherlink.com 1.10,2013-02-04 02:27:00,
2013-02-03 21:42:00,20.9,18.0,29.75,East,98,0.0,0.0,89,0.00,,,0.00,weatherlink.com 1.10,2013-02-04 02:42:00,
2013-02-03 21:57:00,20.9,18.0,29.75,East,99,0.0,0.0,89,0.00,,,0.00,weatherlink.com 1.10,2013-02-04 02:57:00,
2013-02-03 22:12:00,20.7,18.0,29.75,East,98,0.0,0.0,89,0.00,,,0.00,weatherlink.com 1.10,2013-02-04 03:12:00,
2013-02-03 22:27:00,20.6,18.0,29.74,East,98,0.0,0.0,88,0.00,,,0.00,weatherlink.com 1.10,2013-02-04 03:27:00,
2013-02-03 22:43:00,20.6,17.0,29.73,West,259,0.0,1.0,87,0.00,,,0.00,weatherlink.com 1.10,2013-02-04 03:43:00,
2013-02-03 22:58:00,20.4,17.0,29.73,West,259,0.0,1.0,87,0.00,,,0.00,weatherlink.com 1.10,2013-02-04 03:58:00,
2013-02-03 23:28:00,19.7,17.0,29.73,West,262,0.0,1.0,88,0.00,,,0.00,weatherlink.com 1.10,2013-02-04 04:28:00,
2013-02-03 23:43:00,19.7,16.0,29.73,West,278,2.0,5.0,85,0.00,,,0.00,weatherlink.com 1.10,2013-02-04 04:43:00,
2013-02-03 23:58:00,19.9,16.0,29.73,West,275,0.0,5.0,84,0.00,,,0.00,weatherlink.com 1.10,2013-02-04 04:58:00,